Starlink 30836

operational
NORAD ID: 58221 Int'l Des: 2023-170 Owner: SPXS Country: US Constellation: starlink
LEOCIRCULAR

About Starlink 30836

Description loading...

Live Position

Loading 3D Globe...

Upcoming Passes

Altitude History

Altitude vs Time

uPlot chart will show altitude changes over time

Two-Line Element Set

1 58221U 23170R 26033.39055931 -.00052212 00000-0 -39165-2 0 9990
2 58221 43.0073 27.3761 0001900 264.8760 95.1865 15.02170358124975
Epoch: Feb 2, 2026 • Age: 38 hours

Current Status

Altitude 565.8 km
Velocity 7.58 km/s
Sub-Earth Point -23.81°S, 107.22°E
Launch Date Nov 4, 2023
Age 2.2 years
Type internet

Technical Details

Classification Payload
Mass 730.00 kg
Dry Mass 700.00 kg
Total Mass 730.00 kg
Length 0.30 m
Diameter 4.10 m
Span 29.00 m
Shape Box + pan
Manufacturer SPXS
Bus Type Starlink V2M
Phase Status In Orbit
Owner/State SPXS/US

Large Constellations

Loading constellations...